[[{"header":{"parameterUnit":"m.s-1","parameterCategory":2,"la1":30.2991,"la2":30.254,"lo1":-89.0895,"lo2":-89.0444,"dy":0.0017,"dx":0.0017,"nx":28,"ny":28,"refTime":"2025-03-19T21:00:00:Z","depth":"0","parameterNumber":2,"parameterNumberName":"U-component_of_CURRENTS"},"data":[0,0,0,0,0,0,0,0,0,0,0,0,0,0,0,0,0,0,0,0,0,0,0,0,0,0,0,0,0,0,0,0,0,0,0,0,0,0,0,0,0,0,0,0,0,0,0,0,0,0,0,0,0,0,0,0,0,0,-0.2397,-0.2398,0,-0.2397,-0.2397,-0.2397,-0.2387,-0.2387,-0.2387,-0.2387,-0.236,-0.2359,-0.2358,0,0,0,0,0,0,0,0,0,0,0,0,0,-0.2332,-0.2334,-0.2397,-0.2398,-0.2398,-0.2397,-0.2397,-0.2396,-0.2387,-0.2387,-0.2387,-0.2387,-0.236,-0.2359,-0.2358,0,0,0,0,0,0,0,0,0,0,0,0,0,-0.2346,-0.2334,-0.2397,-0.2395,-0.2395,-0.2397,-0.2397,-0.2396,-0.2387,-0.2387,-0.2387,-0.2387,-0.236,-0.2359,-0.2358,-0.235,0,0,-0.2354,-0.2354,0,0,0,0,0,0,0,0,-0.2346,-0.2348,-0.2395,-0.2395,-0.2396,-0.2395,-0.2364,-0.2381,-0.2387,-0.2387,-0.2387,-0.2387,-0.2371,-0.2369,-0.2365,-0.2348,-0.2347,-0.2354,-0.2354,-0.2353,-0.2353,0,0,0,0,0,0,0,-0.2345,-0.2348,-0.2394,-0.2396,-0.2396,-0.2375,-0.2377,-0.2367,-0.2375,-0.2387,-0.2387,-0.2392,-0.237,-0.2366,-0.2364,-0.2347,-0.2354,-0.2353,-0.2353,-0.2352,-0.2303,-0.2302,0,0,0,0,0,0,-0.2354,-0.2348,-0.2394,-0.2394,-0.2374,-0.2377,-0.2379,-0.2392,-0.2376,-0.2375,-0.2392,-0.2391,-0.2368,-0.2365,-0.2363,-0.2362,-0.2353,-0.2352,-0.2351,-0.2304,-0.2303,-0.2302,0,0,0,0,0,0,-0.2353,-0.2359,-0.2394,-0.2373,-0.2376,-0.2379,-0.2393,-0.2392,-0.2391,-0.2381,-0.2378,-0.2392,-0.2368,-0.2364,-0.2349,-0.236,-0.2352,-0.2351,-0.2304,-0.2303,-0.2303,-0.2353,0,0,0,0,0,0,-0.2351,-0.2359,-0.2366,-0.2374,-0.2378,-0.2401,-0.2393,-0.2392,-0.2396,-0.2395,-0.238,-0.2378,-0.2367,-0.2351,-0.2348,-0.2358,-0.235,-0.2305,-0.2304,-0.2303,-0.2352,-0.2354,-0.2356,0,0,0,0,0,-0.2349,-0.236,-0.2366,-0.2371,-0.239,-0.2402,-0.2402,-0.2401,-0.2396,-0.2398,-0.238,-0.2378,-0.2341,-0.2349,-0.2346,-0.2357,-0.2306,-0.2304,-0.2303,-0.2351,-0.2354,-0.2356,0,0,0,0,0,0,-0.2332,-0.2361,-0.2367,-0.2386,-0.2397,-0.2402,-0.2402,-0.2403,-0.2391,-0.2387,-0.2373,-0.2369,-0.236,-0.2343,-0.2352,-0.2335,-0.2322,-0.232,-0.236,-0.2362,-0.2364,-0.2379,-0.2349,0,0,0,0,0,-0.2335,-0.2349,-0.2373,-0.2384,-0.2393,-0.2398,-0.24,-0.2403,-0.2398,-0.2393,-0.2383,-0.2364,-0.2351,-0.2345,-0.2329,-0.2321,-0.2306,-0.2322,-0.2323,-0.2325,-0.2332,-0.2328,-0.2331,-0.2298,-0.2298,-0.2298,0,0,-0.2329,-0.2347,-0.2354,-0.2381,-0.2387,-0.2409,-0.2399,-0.2407,-0.2418,-0.2391,-0.2391,-0.2372,-0.2348,-0.234,-0.2334,-0.233,-0.232,-0.2323,-0.2326,-0.2332,-0.2327,-0.2331,-0.2334,-0.2297,-0.2297,-0.2297,0,0,-0.2339,-0.2345,-0.237,-0.2384,-0.2405,-0.2408,-0.2414,-0.2424,-0.242,-0.2419,-0.24,-0.2386,-0.2366,-0.2355,-0.2346,-0.2344,-0.2329,-0.2334,-0.236,-0.2356,-0.236,-0.2363,-0.2327,-0.2327,-0.2336,-0.2336,-0.2336,0,-0.2331,-0.2372,-0.2376,-0.2407,-0.2418,-0.2413,-0.2441,-0.2437,-0.2437,-0.2433,-0.2423,-0.2394,-0.2376,-0.2371,-0.2369,-0.2352,-0.2335,-0.2361,-0.2362,-0.2365,-0.2367,-0.233,-0.2329,-0.2339,-0.2338,-0.2338,-0.2338,0,-0.2373,-0.24,-0.2411,-0.2451,-0.246,-0.2476,-0.2483,-0.2482,-0.2473,-0.247,-0.2459,-0.2432,-0.2416,-0.2407,-0.239,-0.2393,-0.2369,-0.2368,-0.2366,-0.2374,-0.2333,-0.2331,-0.2342,-0.2341,-0.234,-0.234,0,0,-0.2361,-0.2431,-0.2434,-0.2462,-0.2484,-0.2497,-0.2506,-0.2517,-0.2519,-0.2509,-0.2513,-0.2489,-0.247,-0.2457,-0.2433,-0.2429,-0.2422,-0.2408,-0.2407,-0.2388,-0.2391,-0.2282,-0.2269,-0.2428,-0.2428,-0.2429,-0.2349,0,-0.2391,-0.247,-0.2485,-0.253,-0.2565,-0.2557,-0.2563,-0.2563,-0.2552,-0.2547,-0.2523,-0.2513,-0.249,-0.2481,-0.2474,-0.2438,-0.2422,-0.2442,-0.2372,-0.2369,-0.2286,-0.2266,-0.216,-0.2072,-0.2347,-0.2347,-0.2346,0,-0.2423,-0.2473,-0.2547,-0.258,-0.259,-0.2609,-0.2612,-0.2619,-0.2605,-0.2591,-0.2581,-0.2555,-0.2539,-0.2521,-0.2472,-0.2487,-0.2443,-0.2413,-0.2409,-0.2293,-0.2258,-0.211,-0.2058,-0.2037,-0.2343,-0.2343,-0.2343,0,-0.2426,-0.2498,-0.2562,-0.2579,-0.2624,-0.2637,-0.2646,-0.2637,-0.2623,-0.2626,-0.2607,-0.2592,-0.2566,-0.2537,-0.246,-0.2473,-0.2397,-0.2406,-0.2262,-0.2253,-0.2139,-0.2119,-0.2072,-0.2373,-0.2373,-0.2373,-0.2373,0,-0.2449,-0.248,-0.2574,-0.2607,-0.2609,-0.2664,-0.2649,-0.2646,-0.2658,-0.2584,-0.2633,-0.2566,-0.2572,-0.2515,-0.2467,-0.234,-0.2398,-0.2255,-0.2227,-0.2147,-0.213,-0.2087,-0.2117,-0.237,-0.2371,-0.2371,-0.2372,0,-0.2402,-0.2497,-0.2524,-0.2598,-0.2609,-0.2601,-0.2604,-0.2545,-0.2637,-0.2546,-0.2545,-0.2553,-0.2469,-0.2451,-0.238,-0.2317,-0.2181,-0.2174,-0.2061,-0.202,-0.1858,-0.1895,-0.1824,-0.1775,-0.2003,-0.2,-0.1997,0,-0.2377,-0.2403,-0.2463,-0.2411,-0.2427,-0.2438,-0.2363,-0.2474,-0.2391,-0.2472,-0.236,-0.2383,-0.2253,-0.2171,-0.2096,-0.2003,-0.2036,-0.1854,-0.1859,-0.182,-0.1842,-0.1887,-0.1857,-0.1722,-0.1717,-0.1713,-0.171,0,-0.2203,-0.2229,-0.2216,-0.2185,-0.2122,-0.2065,-0.201,-0.1971,-0.2034,-0.2007,-0.1948,-0.1942,-0.1952,-0.1828,-0.1789,-0.1723,-0.1807,-0.1768,-0.1771,-0.1644,-0.1651,-0.1599,-0.1795,-0.1676,-0.168,-0.1682,-0.1684,-0.1685,-0.1945,-0.1883,-0.1864,-0.1826,-0.1762,-0.1633,-0.155,-0.1457,-0.1359,-0.1273,-0.1455,-0.1405,-0.1615,-0.1547,-0.1493,-0.1415,-0.1511,-0.138,-0.1433,-0.1487,-0.1426,-0.1523,-0.1349,-0.1351,-0.1352,-0.1353,-0.1354,0,-0.1547,-0.1532,-0.1471,-0.1424,-0.1324,-0.1396,-0.1234,-0.1121,-0.0903,-0.081,-0.0799,-0.096,-0.0982,-0.1161,-0.1181,-0.1115,-0.1125,-0.1113,-0.1179,-0.1168,-0.127,-0.1242,-0.0984,-0.0984,-0.0984,-0.0984,-0.0984,-0.0985,-0.1282,-0.1142,-0.1199,-0.1012,-0.1002,-0.0828,-0.0716,-0.0545,-0.0443,-0.0236,-0.0245,-0.0366,-0.0747,-0.1051,-0.1056,-0.1004,-0.1021,-0.0975,-0.1034,-0.1137,-0.1168,-0.1197,-0.1176,-0.0909,-0.0909,-0.0878,-0.0878,-0.0877]},{"header":{"parameterUnit":"m.s-1","parameterCategory":2,"la1":30.2991,"la2":30.254,"lo1":-89.0895,"lo2":-89.0444,"dy":0.0017,"dx":0.0017,"nx":28,"ny":28,"refTime":"2025-03-19T21:00:00:Z","depth":"0","parameterNumber":3,"parameterNumberName":"V-component_of_CURRENTS"},"data":[0,0,0,0,0,0,0,0,0,0,0,0,0,0,0,0,0,0,0,0,0,0,0,0,0,0,0,0,0,0,0,0,0,0,0,0,0,0,0,0,0,0,0,0,0,0,0,0,0,0,0,0,0,0,0,0,0,0,-0.0267,-0.0266,0,-0.0208,-0.0208,-0.0207,-0.0157,-0.0157,-0.0156,-0.0156,-0.0056,-0.0054,-0.0052,0,0,0,0,0,0,0,0,0,0,0,0,0,-0.0277,-0.0278,-0.0267,-0.0266,-0.0265,-0.0208,-0.0208,-0.0207,-0.0157,-0.0157,-0.0156,-0.0156,-0.0057,-0.0054,-0.0052,0,0,0,0,0,0,0,0,0,0,0,0,0,-0.025,-0.0278,-0.0267,-0.0235,-0.0231,-0.0209,-0.0208,-0.0206,-0.0157,-0.0157,-0.0156,-0.0155,-0.0058,-0.0055,-0.0051,-0.0044,0,0,-0.0041,-0.004,0,0,0,0,0,0,0,0,-0.0252,-0.025,-0.024,-0.0237,-0.0233,-0.019,-0.0175,-0.015,-0.0158,-0.0184,-0.0156,-0.0155,-0.0098,-0.0092,-0.0081,-0.0039,-0.0035,-0.0041,-0.0039,-0.0037,-0.0036,0,0,0,0,0,0,0,-0.0254,-0.0252,-0.0242,-0.024,-0.0235,-0.0203,-0.0199,-0.017,-0.0144,-0.0182,-0.0178,-0.0174,-0.0096,-0.0085,-0.0078,-0.0034,-0.0041,-0.0038,-0.0036,-0.0034,0.0046,0.0047,0,0,0,0,0,0,-0.0267,-0.0254,-0.0244,-0.0241,-0.0242,-0.0204,-0.0199,-0.0204,-0.0145,-0.0136,-0.0175,-0.0172,-0.0091,-0.0082,-0.0075,-0.0048,-0.0037,-0.0034,-0.0032,0.0046,0.0047,0.0047,0,0,0,0,0,0,-0.0268,-0.0268,-0.0247,-0.0246,-0.0241,-0.0205,-0.021,-0.0203,-0.019,-0.014,-0.013,-0.0169,-0.009,-0.0079,-0.0048,-0.0045,-0.0033,-0.003,0.0046,0.0046,0.0047,-0.0005,0,0,0,0,0,0,-0.0269,-0.0268,-0.0276,-0.0248,-0.0242,-0.0238,-0.0211,-0.0202,-0.0189,-0.0185,-0.0133,-0.0123,-0.0089,-0.0053,-0.0045,-0.004,-0.0027,0.0046,0.0046,0.0047,-0.0003,-0.0006,-0.0009,0,0,0,0,0,-0.027,-0.0289,-0.0277,-0.0276,-0.0254,-0.0239,-0.0233,-0.0204,-0.019,-0.0189,-0.0151,-0.0124,-0.0045,-0.0051,-0.0041,-0.0035,0.0046,0.0046,0.0047,-0.0002,-0.0006,-0.0009,0,0,0,0,0,0,-0.0299,-0.0285,-0.0271,-0.0285,-0.0264,-0.0231,-0.023,-0.0209,-0.018,-0.0175,-0.0126,-0.0113,-0.0083,-0.0054,-0.0061,-0.001,0.0006,0.0008,-0.0034,-0.0037,-0.004,-0.005,-0.0024,0,0,0,0,0,-0.031,-0.0319,-0.0294,-0.0304,-0.0298,-0.0264,-0.0254,-0.0235,-0.0206,-0.0192,-0.0154,-0.0112,-0.0074,-0.0053,-0.0018,0.0006,0.0053,0.0018,0.0015,0.0012,0.0012,0.0084,0.0088,0.0048,0.0048,0.0048,0,0,-0.0325,-0.0318,-0.0322,-0.0311,-0.0293,-0.029,-0.0257,-0.0248,-0.0239,-0.0186,-0.0163,-0.0123,-0.0071,-0.0041,-0.0024,-0.0016,0.005,0.0013,0.001,0.0011,0.0085,0.0089,0.0093,0.0048,0.0048,0.0048,0,0,-0.0365,-0.0352,-0.0374,-0.0358,-0.0339,-0.0314,-0.0314,-0.0282,-0.0261,-0.0237,-0.0192,-0.015,-0.0102,-0.0056,-0.0028,-0.0025,0.0031,-0.0016,-0.0036,0.0034,0.0038,0.0042,0.0109,0.012,-0.0016,-0.0016,-0.0016,0,-0.0383,-0.0403,-0.0377,-0.0388,-0.0375,-0.0329,-0.0338,-0.0311,-0.0271,-0.0248,-0.0238,-0.0145,-0.0106,-0.005,-0.0051,-0.0031,0.0015,-0.003,0.003,0.0035,0.004,0.0108,0.0121,-0.0019,-0.0018,-0.0018,-0.0018,0,-0.0438,-0.0444,-0.0454,-0.0448,-0.0431,-0.0431,-0.0388,-0.0365,-0.0332,-0.0297,-0.0241,-0.0182,-0.0123,-0.0104,-0.0079,-0.0022,0.0001,0.0016,0.0036,0.0041,0.0113,0.0126,-0.0022,-0.0021,-0.002,-0.002,0,0,-0.0495,-0.0495,-0.0495,-0.0486,-0.046,-0.0443,-0.0428,-0.0388,-0.0361,-0.0315,-0.0275,-0.0209,-0.0169,-0.0134,-0.0086,-0.0029,0.0044,-0.0001,0.0004,0.0062,0.02,0.0244,0.0264,0.0068,0.007,0.0072,0.0236,0,-0.0541,-0.057,-0.0557,-0.0556,-0.0554,-0.0502,-0.0482,-0.0434,-0.0388,-0.0338,-0.0262,-0.0205,-0.0181,-0.0145,-0.009,0.0014,0.0077,-0.0002,0.0191,0.0197,0.0232,0.028,0.0292,0.0442,0.025,0.0252,0.0254,0,-0.0596,-0.0597,-0.0619,-0.0581,-0.0575,-0.0565,-0.05,-0.0477,-0.0399,-0.0362,-0.0299,-0.0239,-0.0147,-0.0129,0.0045,-0.0007,0.0086,0.0165,0.0174,0.0242,0.0267,0.0408,0.0475,0.0579,0.0276,0.0274,0.0272,0,-0.0624,-0.0631,-0.0643,-0.0633,-0.0594,-0.0579,-0.0547,-0.0481,-0.0405,-0.0367,-0.0303,-0.0227,-0.014,-0.0035,0.0116,0.0087,0.0315,0.0301,0.0433,0.0437,0.0501,0.0507,0.0688,0.0429,0.0428,0.0428,0.0428,0,-0.0664,-0.0658,-0.0652,-0.0646,-0.0595,-0.0594,-0.0519,-0.0487,-0.0404,-0.0278,-0.0303,-0.0191,-0.0108,0.0031,0.0131,0.0337,0.0337,0.0448,0.0491,0.0483,0.0486,0.062,0.0648,0.0434,0.0433,0.0432,0.0431,0,-0.064,-0.0683,-0.0644,-0.0618,-0.0598,-0.0543,-0.0426,-0.0371,-0.034,-0.0178,-0.015,-0.0106,0.003,0.0131,0.0317,0.0396,0.0638,0.063,0.061,0.0647,0.0834,0.0857,0.1085,0.1166,0.0793,0.0796,0.0797,0,-0.0608,-0.0604,-0.0556,-0.0534,-0.0508,-0.0431,-0.0369,-0.0311,-0.022,-0.0083,0.0009,0.0109,0.0215,0.0432,0.0542,0.0708,0.0777,0.0842,0.0784,0.087,0.0928,0.0936,0.0987,0.0853,0.0855,0.0857,0.0858,0,-0.0478,-0.0479,-0.0446,-0.041,-0.0362,-0.0264,-0.0173,-0.0074,0.002,0.0132,0.0303,0.0368,0.0499,0.0619,0.0739,0.084,0.0915,0.0884,0.099,0.1011,0.1017,0.1106,0.0713,0.0874,0.0872,0.0871,0.087,0.087,-0.0324,-0.0273,-0.0281,-0.0246,-0.0204,-0.0128,-0.005,0.0064,0.0224,0.04,0.0531,0.0648,0.0757,0.0874,0.098,0.1116,0.1084,0.1174,0.1204,0.1211,0.1266,0.0906,0.1097,0.1097,0.1096,0.1096,0.1096,0,-0.0127,-0.0152,-0.012,-0.0119,-0.0083,-0.0085,0.0055,0.0147,0.0323,0.0497,0.0689,0.0969,0.1058,0.113,0.1275,0.1416,0.1431,0.1485,0.1495,0.1539,0.1247,0.1225,0.1431,0.1431,0.1431,0.1431,0.1431,0.1431,-0.0023,-0.0001,-0.0039,-0.0016,-0.0025,0.003,0.0109,0.0272,0.0409,0.0687,0.0861,0.1027,0.1207,0.1485,0.1663,0.1686,0.1816,0.18,0.189,0.1662,0.1634,0.1607,0.1595,0.1876,0.1876,0.2164,0.2167,0.2169]}],[{"header":{"parameterUnit":"m.s-1","parameterCategory":2,"la1":30.2991,"la2":30.254,"lo1":-89.0895,"lo2":-89.0444,"dy":0.0017,"dx":0.0017,"nx":28,"ny":28,"refTime":"2025-03-19T21:00:00:Z","depth":"2","parameterNumber":2,"parameterNumberName":"U-component_of_CURRENTS"},"data":[0,0,0,0,0,0,0,0,0,0,0,0,0,0,0,0,0,0,0,0,0,0,0,0,0,0,0,0,0,0,0,0,0,0,0,0,0,0,0,0,0,0,0,0,0,0,0,0,0,0,0,0,0,0,0,0,0,0,-0.2203,-0.2203,0,-0.2216,-0.2216,-0.2216,-0.2218,-0.2218,-0.2218,-0.2218,-0.2201,-0.22,-0.22,0,0,0,0,0,0,0,0,0,0,0,0,0,-0.2141,-0.2142,-0.2203,-0.2203,-0.2204,-0.2216,-0.2216,-0.2216,-0.2218,-0.2218,-0.2218,-0.2218,-0.2201,-0.22,-0.22,0,0,0,0,0,0,0,0,0,0,0,0,0,-0.216,-0.2143,-0.2203,-0.2208,-0.2208,-0.2216,-0.2216,-0.2216,-0.2218,-0.2218,-0.2218,-0.2218,-0.2201,-0.22,-0.22,-0.2192,0,0,-0.2197,-0.2197,0,0,0,0,0,0,0,0,-0.2159,-0.2162,-0.2207,-0.2207,-0.2208,-0.2218,-0.2188,-0.2207,-0.2218,-0.2212,-0.2218,-0.2218,-0.2205,-0.2204,-0.2203,-0.2191,-0.219,-0.2197,-0.2197,-0.2196,-0.2196,0,0,0,0,0,0,0,-0.2158,-0.2162,-0.2206,-0.2207,-0.2208,-0.2197,-0.22,-0.2192,-0.2205,-0.2212,-0.2213,-0.2218,-0.2205,-0.2204,-0.2203,-0.219,-0.2197,-0.2196,-0.2196,-0.2196,-0.2168,-0.2168,0,0,0,0,0,0,-0.2163,-0.2161,-0.2205,-0.2206,-0.2186,-0.2198,-0.2201,-0.2212,-0.2206,-0.2206,-0.2218,-0.2218,-0.2205,-0.2204,-0.2202,-0.2208,-0.2196,-0.2195,-0.2195,-0.2168,-0.2168,-0.2168,0,0,0,0,0,0,-0.2162,-0.2167,-0.2205,-0.2185,-0.2189,-0.2199,-0.2212,-0.2213,-0.2218,-0.2211,-0.221,-0.2223,-0.2205,-0.2203,-0.2197,-0.2207,-0.2195,-0.2194,-0.2169,-0.2168,-0.2168,-0.2211,0,0,0,0,0,0,-0.216,-0.2167,-0.2174,-0.2186,-0.2191,-0.2216,-0.2212,-0.2213,-0.2222,-0.2222,-0.2215,-0.2213,-0.2205,-0.2198,-0.2196,-0.2206,-0.2194,-0.2169,-0.2169,-0.2168,-0.221,-0.2212,-0.2214,0,0,0,0,0,-0.2158,-0.217,-0.2174,-0.2179,-0.2201,-0.2217,-0.2218,-0.2223,-0.2222,-0.2227,-0.2218,-0.2214,-0.2193,-0.2197,-0.2195,-0.2205,-0.2169,-0.2169,-0.2168,-0.2209,-0.2211,-0.2214,0,0,0,0,0,0,-0.2147,-0.2172,-0.2177,-0.2195,-0.2208,-0.2218,-0.2223,-0.2227,-0.2224,-0.2222,-0.2213,-0.221,-0.2209,-0.2195,-0.22,-0.2193,-0.218,-0.2179,-0.2211,-0.2214,-0.2216,-0.2224,-0.2193,0,0,0,0,0,-0.2149,-0.2161,-0.2183,-0.2195,-0.2204,-0.2214,-0.2219,-0.2226,-0.2227,-0.2227,-0.2222,-0.221,-0.2203,-0.22,-0.219,-0.2187,-0.2172,-0.2189,-0.2192,-0.2194,-0.2197,-0.219,-0.2193,-0.2166,-0.2166,-0.2166,0,0,-0.2146,-0.2161,-0.2167,-0.2193,-0.2201,-0.222,-0.2217,-0.2231,-0.2242,-0.2224,-0.2231,-0.2219,-0.2203,-0.2202,-0.2199,-0.2194,-0.2189,-0.2193,-0.2195,-0.2197,-0.219,-0.2193,-0.2195,-0.2166,-0.2166,-0.2166,0,0,-0.215,-0.2163,-0.2177,-0.2193,-0.2214,-0.2222,-0.2229,-0.2244,-0.2247,-0.2253,-0.2241,-0.2236,-0.2225,-0.2218,-0.2212,-0.2217,-0.2201,-0.2212,-0.2232,-0.2226,-0.2228,-0.2231,-0.2202,-0.2201,-0.2213,-0.2213,-0.2213,0,-0.2145,-0.2172,-0.2182,-0.2204,-0.2219,-0.2226,-0.2248,-0.2253,-0.2262,-0.2265,-0.2259,-0.2246,-0.2234,-0.2235,-0.2236,-0.2225,-0.221,-0.2228,-0.2231,-0.2232,-0.2234,-0.2204,-0.2202,-0.2215,-0.2215,-0.2215,-0.2214,0,-0.2165,-0.2187,-0.2197,-0.2228,-0.2243,-0.2261,-0.2278,-0.2287,-0.2289,-0.2293,-0.2295,-0.2278,-0.2271,-0.2266,-0.2254,-0.2258,-0.2239,-0.2237,-0.223,-0.224,-0.2206,-0.2204,-0.2218,-0.2217,-0.2217,-0.2216,0,0,-0.2149,-0.2201,-0.2204,-0.2227,-0.2259,-0.2274,-0.2294,-0.2314,-0.2326,-0.2327,-0.2337,-0.2324,-0.2315,-0.2307,-0.2291,-0.2285,-0.2278,-0.2268,-0.2267,-0.2248,-0.2248,-0.216,-0.2149,-0.2281,-0.2281,-0.2282,-0.2216,0,-0.216,-0.2206,-0.2228,-0.2267,-0.2292,-0.2311,-0.2329,-0.2346,-0.235,-0.2359,-0.2347,-0.2346,-0.2331,-0.2326,-0.2321,-0.229,-0.2276,-0.2294,-0.2233,-0.223,-0.216,-0.2146,-0.1985,-0.1908,-0.2214,-0.2214,-0.2214,0,-0.2169,-0.2202,-0.2244,-0.2295,-0.2308,-0.2327,-0.2357,-0.2377,-0.2389,-0.2392,-0.2392,-0.238,-0.2369,-0.2355,-0.2315,-0.2328,-0.2291,-0.2265,-0.2262,-0.2166,-0.2139,-0.1948,-0.1892,-0.221,-0.221,-0.221,-0.2211,0,-0.2147,-0.2209,-0.2243,-0.2261,-0.2318,-0.2335,-0.2359,-0.2381,-0.2392,-0.2408,-0.2409,-0.2403,-0.2384,-0.236,-0.2301,-0.2311,-0.2248,-0.2253,-0.2137,-0.213,-0.1972,-0.195,-0.2224,-0.2224,-0.2224,-0.2224,-0.2224,0,-0.2143,-0.2165,-0.2236,-0.2253,-0.2265,-0.2331,-0.2343,-0.2359,-0.2402,-0.2413,-0.2419,-0.2403,-0.2386,-0.2345,-0.2306,-0.2202,-0.2248,-0.2131,-0.2108,-0.1979,-0.196,-0.221,-0.221,-0.2222,-0.2222,-0.2223,-0.2223,0,-0.2068,-0.2144,-0.2158,-0.2228,-0.2247,-0.2242,-0.23,-0.2322,-0.2375,-0.239,-0.2397,-0.2392,-0.2331,-0.2296,-0.2235,-0.2181,-0.2112,-0.2065,-0.1902,-0.1861,-0.1997,-0.2,-0.1929,-0.1925,-0.1922,-0.1919,-0.1917,0,-0.2013,-0.2026,-0.2079,-0.2096,-0.2115,-0.2146,-0.2173,-0.2262,-0.2292,-0.2368,-0.2362,-0.2331,-0.2257,-0.2124,-0.2023,-0.1918,-0.2009,-0.1727,-0.1717,-0.1982,-0.1967,-0.1975,-0.1981,-0.1518,-0.1513,-0.1509,-0.1505,0,-0.1882,-0.1907,-0.193,-0.1948,-0.1984,-0.2009,-0.2067,-0.2092,-0.2221,-0.2248,-0.2272,-0.2231,-0.2097,-0.1876,-0.1731,-0.1664,-0.1735,-0.1635,-0.1946,-0.1624,-0.1592,-0.1579,-0.1599,-0.1467,-0.1471,-0.1474,-0.1476,-0.1477,-0.1756,-0.1724,-0.1777,-0.1775,-0.1823,-0.1859,-0.183,-0.1938,-0.197,-0.1996,-0.2095,-0.1967,-0.1872,-0.1527,-0.1421,-0.1337,-0.1461,-0.1398,-0.1413,-0.1432,-0.1402,-0.1367,-0.1193,-0.1195,-0.1197,-0.1199,-0.12,0,-0.1608,-0.1618,-0.1611,-0.1626,-0.1611,-0.1692,-0.1745,-0.1708,-0.1699,-0.1759,-0.1761,-0.1528,-0.1324,-0.1239,-0.1033,-0.0984,-0.0997,-0.0953,-0.097,-0.1007,-0.104,-0.0993,-0.0674,-0.0673,-0.0671,-0.067,0,0,-0.1551,-0.1512,-0.1506,-0.1423,-0.1427,-0.1363,-0.1358,-0.1332,-0.1323,-0.1281,-0.1225,-0.128,-0.1212,-0.0956,-0.0876,-0.074,-0.0877,-0.0704,-0.1123,-0.1181,-0.1213,-0.1287,-0.1254,0,0,0,0,0]},{"header":{"parameterUnit":"m.s-1","parameterCategory":2,"la1":30.2991,"la2":30.254,"lo1":-89.0895,"lo2":-89.0444,"dy":0.0017,"dx":0.0017,"nx":28,"ny":28,"refTime":"2025-03-19T21:00:00:Z","depth":"2","parameterNumber":3,"parameterNumberName":"V-component_of_CURRENTS"},"data":[0,0,0,0,0,0,0,0,0,0,0,0,0,0,0,0,0,0,0,0,0,0,0,0,0,0,0,0,0,0,0,0,0,0,0,0,0,0,0,0,0,0,0,0,0,0,0,0,0,0,0,0,0,0,0,0,0,0,-0.0321,-0.0321,0,-0.0264,-0.0263,-0.0262,-0.0221,-0.0221,-0.0221,-0.0221,-0.013,-0.0128,-0.0125,0,0,0,0,0,0,0,0,0,0,0,0,0,-0.0343,-0.0343,-0.0321,-0.0321,-0.032,-0.0264,-0.0263,-0.0262,-0.0221,-0.0221,-0.0221,-0.0221,-0.013,-0.0128,-0.0125,0,0,0,0,0,0,0,0,0,0,0,0,0,-0.0313,-0.0343,-0.0321,-0.0294,-0.0291,-0.0264,-0.0263,-0.0262,-0.0222,-0.0221,-0.0221,-0.0221,-0.0131,-0.0128,-0.0125,-0.0111,0,0,-0.0115,-0.0113,0,0,0,0,0,0,0,0,-0.0315,-0.0312,-0.0298,-0.0296,-0.0292,-0.025,-0.0237,-0.021,-0.0222,-0.0247,-0.0221,-0.022,-0.0168,-0.0161,-0.0151,-0.0107,-0.0103,-0.0114,-0.0112,-0.0111,-0.011,0,0,0,0,0,0,0,-0.0317,-0.0314,-0.0297,-0.0298,-0.0294,-0.0266,-0.0262,-0.0231,-0.0209,-0.0245,-0.0242,-0.0237,-0.0166,-0.0154,-0.0148,-0.0102,-0.0115,-0.0112,-0.011,-0.0108,-0.0028,-0.0028,0,0,0,0,0,0,-0.033,-0.0317,-0.0299,-0.0296,-0.0304,-0.0266,-0.0261,-0.0263,-0.021,-0.0202,-0.0237,-0.0235,-0.016,-0.0152,-0.0145,-0.0119,-0.0111,-0.0108,-0.0106,-0.0028,-0.0028,-0.0028,0,0,0,0,0,0,-0.033,-0.0329,-0.0302,-0.0305,-0.03,-0.0267,-0.0269,-0.0262,-0.025,-0.0205,-0.0196,-0.0232,-0.0159,-0.0149,-0.0119,-0.0116,-0.0106,-0.0103,-0.0028,-0.0028,-0.0028,-0.0072,0,0,0,0,0,0,-0.0331,-0.033,-0.0335,-0.0306,-0.03,-0.0291,-0.0269,-0.0261,-0.0248,-0.0245,-0.0197,-0.0188,-0.0158,-0.0124,-0.0115,-0.0111,-0.0101,-0.0028,-0.0028,-0.0028,-0.0071,-0.0074,-0.0076,0,0,0,0,0,-0.0332,-0.0345,-0.0336,-0.0334,-0.031,-0.0291,-0.0285,-0.0259,-0.0249,-0.0247,-0.0213,-0.019,-0.0116,-0.0121,-0.0111,-0.0106,-0.0028,-0.0028,-0.0028,-0.007,-0.0073,-0.0076,0,0,0,0,0,0,-0.0357,-0.0341,-0.0331,-0.0338,-0.0318,-0.0285,-0.0282,-0.0264,-0.0236,-0.0233,-0.0189,-0.0178,-0.0149,-0.0122,-0.0129,-0.0081,-0.0068,-0.0066,-0.0103,-0.0106,-0.0108,-0.012,-0.0098,0,0,0,0,0,-0.0366,-0.0371,-0.0347,-0.0352,-0.0345,-0.0314,-0.0304,-0.0287,-0.0258,-0.0246,-0.0212,-0.0174,-0.014,-0.012,-0.0088,-0.0063,-0.0028,-0.0052,-0.0054,-0.0057,-0.0059,-0.0006,-0.0004,-0.0026,-0.0026,-0.0026,0,0,-0.0377,-0.0369,-0.0371,-0.0357,-0.034,-0.0334,-0.0307,-0.0296,-0.0286,-0.024,-0.0218,-0.0183,-0.0136,-0.0107,-0.0092,-0.0084,-0.0032,-0.0056,-0.0059,-0.006,-0.0005,-0.0003,-0.0001,-0.0026,-0.0026,-0.0026,0,0,-0.0403,-0.0394,-0.0407,-0.0393,-0.0374,-0.0353,-0.0352,-0.0322,-0.0303,-0.028,-0.0242,-0.0206,-0.0159,-0.012,-0.0095,-0.009,-0.0048,-0.0082,-0.01,-0.0049,-0.0046,-0.0044,0.0002,0.0009,-0.008,-0.0081,-0.0081,0,-0.0417,-0.0429,-0.0407,-0.0412,-0.0403,-0.0365,-0.0369,-0.0345,-0.0307,-0.0289,-0.028,-0.02,-0.0163,-0.0115,-0.0115,-0.0095,-0.0063,-0.0095,-0.0052,-0.0049,-0.0046,0.0001,0.001,-0.0083,-0.0082,-0.0082,-0.0082,0,-0.045,-0.0455,-0.0461,-0.0454,-0.044,-0.0438,-0.0402,-0.0384,-0.0359,-0.0328,-0.0283,-0.023,-0.0181,-0.0162,-0.0138,-0.0095,-0.0079,-0.0064,-0.0048,-0.0046,0.0003,0.0013,-0.0086,-0.0085,-0.0084,-0.0084,0,0,-0.0492,-0.0487,-0.0488,-0.0492,-0.0462,-0.0457,-0.0436,-0.0404,-0.0388,-0.0345,-0.0317,-0.0255,-0.0224,-0.0194,-0.0151,-0.0107,-0.0057,-0.0083,-0.008,-0.0043,0.0054,0.0073,0.0086,-0.0036,-0.0035,-0.0034,0.0079,0,-0.0524,-0.0553,-0.053,-0.0541,-0.0552,-0.0504,-0.0485,-0.0448,-0.0409,-0.0372,-0.0307,-0.0265,-0.0235,-0.0211,-0.0163,-0.0083,-0.0035,-0.0089,0.0052,0.0056,0.0069,0.0096,0.0064,0.0162,0.0088,0.009,0.0091,0,-0.0566,-0.0579,-0.0608,-0.059,-0.0587,-0.0582,-0.0544,-0.0519,-0.045,-0.0417,-0.0362,-0.0308,-0.0234,-0.0213,-0.0076,-0.0114,-0.0038,0.0025,0.0031,0.0071,0.0093,0.0151,0.0183,0.0107,0.0106,0.0105,0.0104,0,-0.0627,-0.0628,-0.0657,-0.0653,-0.0629,-0.0624,-0.06,-0.0541,-0.0524,-0.0446,-0.0421,-0.0325,-0.0272,-0.0171,-0.0045,-0.0058,0.0107,0.011,0.0203,0.0206,0.0217,0.0218,0.021,0.021,0.0209,0.0209,0.0209,0,-0.0683,-0.0702,-0.0691,-0.0712,-0.074,-0.0681,-0.069,-0.0647,-0.0582,-0.0567,-0.0454,-0.0408,-0.0259,-0.0149,-0.0045,0.0112,0.0114,0.0209,0.0241,0.0201,0.0199,0.0179,0.0174,0.0213,0.0212,0.0211,0.0211,0,-0.0766,-0.0753,-0.0792,-0.078,-0.0783,-0.0805,-0.0782,-0.0777,-0.0686,-0.066,-0.0636,-0.0468,-0.0305,-0.015,0.0035,0.0119,0.0262,0.0317,0.0258,0.028,0.0324,0.0315,0.043,0.0431,0.0433,0.0434,0.0435,0,-0.0823,-0.085,-0.0876,-0.0908,-0.0914,-0.0932,-0.0945,-0.0866,-0.0859,-0.0699,-0.0696,-0.0501,-0.038,-0.0081,0.0117,0.0321,0.0321,0.0403,0.0374,0.0329,0.0349,0.0338,0.0327,0.0375,0.0375,0.0376,0.0376,0,-0.0927,-0.0929,-0.0958,-0.103,-0.1065,-0.1097,-0.1101,-0.1108,-0.0996,-0.0938,-0.0789,-0.0655,-0.0329,-0.0084,0.0197,0.0308,0.0365,0.0417,0.0407,0.0316,0.0285,0.0301,0.0292,0.0379,0.0379,0.0379,0.0379,0.0379,-0.1003,-0.105,-0.1078,-0.114,-0.1185,-0.122,-0.1236,-0.1209,-0.1176,-0.1029,-0.0906,-0.0664,-0.0389,0.0024,0.0229,0.0437,0.0426,0.0461,0.0457,0.0454,0.0419,0.0391,0.0499,0.05,0.05,0.05,0.05,0,-0.1087,-0.1114,-0.118,-0.1235,-0.1286,-0.1288,-0.1304,-0.1266,-0.1218,-0.1065,-0.0915,-0.0608,-0.0324,-0.0011,0.0316,0.0486,0.047,0.0514,0.0455,0.0451,0.0447,0.041,0.049,0.049,0.0491,0.0491,0,0,-0.1127,-0.1187,-0.1207,-0.1295,-0.1334,-0.1368,-0.1369,-0.129,-0.1165,-0.0985,-0.0813,-0.0633,-0.0273,-0.006,0.0171,0.0356,0.036,0.0371,0.0359,0.0259,0.0254,0.0395,0.033,0,0,0,0,0]}],[{"header":{"parameterUnit":"m.s-1","parameterCategory":2,"la1":30.2991,"la2":30.254,"lo1":-89.0895,"lo2":-89.0444,"dy":0.0017,"dx":0.0017,"nx":28,"ny":28,"refTime":"2025-03-19T21:00:00:Z","depth":"4","parameterNumber":2,"parameterNumberName":"U-component_of_CURRENTS"},"data":[0,0,0,0,0,0,0,0,0,0,0,0,0,0,0,0,0,0,0,0,0,0,0,0,0,0,0,0,0,0,0,0,0,0,0,0,0,0,0,0,0,0,0,0,0,0,0,0,0,0,0,0,0,0,0,0,0,0,-0.1576,-0.1577,0,-0.1638,-0.1638,-0.1639,-0.1694,-0.1695,-0.1696,-0.1696,-0.1757,-0.1758,-0.1759,0,0,0,0,0,0,0,0,0,0,0,0,0,-0.1495,-0.1496,-0.1576,-0.1577,-0.1578,-0.1638,-0.1639,-0.1639,-0.1694,-0.1695,-0.1696,-0.1697,-0.1757,-0.1758,-0.1759,0,0,0,0,0,0,0,0,0,0,0,0,0,-0.1539,-0.1496,-0.1576,-0.1614,-0.1618,-0.1638,-0.1639,-0.1639,-0.1694,-0.1695,-0.1696,-0.1697,-0.1756,-0.1758,-0.1759,-0.1744,0,0,-0.1763,-0.1764,0,0,0,0,0,0,0,0,-0.1537,-0.1542,-0.1607,-0.1611,-0.1616,-0.1661,-0.1632,-0.1675,-0.1693,-0.1663,-0.1696,-0.1698,-0.1725,-0.1729,-0.1736,-0.1747,-0.175,-0.1763,-0.1764,-0.1765,-0.1765,0,0,0,0,0,0,0,-0.1533,-0.154,-0.1599,-0.1608,-0.1613,-0.1623,-0.1631,-0.164,-0.1686,-0.1666,-0.1671,-0.1679,-0.1727,-0.1734,-0.1738,-0.1751,-0.1763,-0.1765,-0.1765,-0.1766,-0.1816,-0.1816,0,0,0,0,0,0,-0.1528,-0.1537,-0.1597,-0.1601,-0.158,-0.1624,-0.1633,-0.1644,-0.1686,-0.1694,-0.1678,-0.1682,-0.1732,-0.1736,-0.174,-0.1793,-0.1765,-0.1766,-0.1767,-0.1815,-0.1816,-0.1817,0,0,0,0,0,0,-0.1526,-0.1533,-0.1595,-0.1571,-0.158,-0.1625,-0.1637,-0.1645,-0.1683,-0.1695,-0.1703,-0.1712,-0.1733,-0.1738,-0.1773,-0.1793,-0.1767,-0.1768,-0.1815,-0.1816,-0.1816,-0.1855,0,0,0,0,0,0,-0.1523,-0.1532,-0.1551,-0.1571,-0.1581,-0.1627,-0.1636,-0.1645,-0.1685,-0.1691,-0.1726,-0.1732,-0.1734,-0.1771,-0.1774,-0.1795,-0.1769,-0.1814,-0.1815,-0.1816,-0.1854,-0.1858,-0.1861,0,0,0,0,0,-0.152,-0.154,-0.1552,-0.156,-0.1602,-0.1627,-0.1634,-0.1668,-0.1686,-0.1706,-0.173,-0.1732,-0.1779,-0.1773,-0.1776,-0.1798,-0.1814,-0.1815,-0.1816,-0.1852,-0.1857,-0.1861,0,0,0,0,0,0,-0.152,-0.1548,-0.1561,-0.1591,-0.1616,-0.1638,-0.1664,-0.1683,-0.1717,-0.1731,-0.1742,-0.1748,-0.1785,-0.1783,-0.1776,-0.1813,-0.1795,-0.1797,-0.1821,-0.1826,-0.183,-0.1824,-0.177,0,0,0,0,0,-0.1526,-0.1547,-0.1573,-0.1599,-0.1614,-0.1643,-0.1663,-0.1686,-0.1711,-0.173,-0.1753,-0.1772,-0.1786,-0.1802,-0.1813,-0.1836,-0.1818,-0.185,-0.1854,-0.1857,-0.1854,-0.1849,-0.1852,-0.1821,-0.1821,-0.182,0,0,-0.1534,-0.1552,-0.1566,-0.16,-0.1624,-0.1648,-0.1659,-0.1698,-0.1723,-0.1729,-0.1778,-0.179,-0.1794,-0.1821,-0.1837,-0.1829,-0.1855,-0.1858,-0.1861,-0.1856,-0.185,-0.1853,-0.1856,-0.1821,-0.1821,-0.1821,0,0,-0.1545,-0.1576,-0.1594,-0.1617,-0.1656,-0.1672,-0.1689,-0.1725,-0.1753,-0.1791,-0.1799,-0.1824,-0.1853,-0.1858,-0.1862,-0.189,-0.1874,-0.1898,-0.1916,-0.1912,-0.1914,-0.1916,-0.1889,-0.1888,-0.1901,-0.1901,-0.1901,0,-0.1557,-0.158,-0.1604,-0.1626,-0.165,-0.1685,-0.1709,-0.1737,-0.1782,-0.1801,-0.1814,-0.1855,-0.1866,-0.1885,-0.1897,-0.19,-0.1886,-0.1901,-0.1917,-0.1918,-0.192,-0.1891,-0.189,-0.1903,-0.1903,-0.1903,-0.1903,0,-0.1568,-0.1602,-0.1617,-0.1653,-0.1681,-0.1712,-0.1746,-0.1783,-0.1818,-0.1839,-0.1882,-0.1895,-0.1916,-0.1924,-0.1922,-0.1939,-0.1922,-0.1922,-0.1906,-0.1925,-0.1894,-0.1891,-0.1906,-0.1905,-0.1905,-0.1904,0,0,-0.1557,-0.1613,-0.1623,-0.165,-0.1701,-0.1724,-0.1768,-0.1809,-0.1842,-0.1883,-0.1914,-0.1941,-0.1953,-0.1957,-0.196,-0.1959,-0.1957,-0.1949,-0.1948,-0.1921,-0.1932,-0.1803,-0.1788,-0.1965,-0.1965,-0.1965,-0.1903,0,-0.1563,-0.1603,-0.1631,-0.1683,-0.171,-0.1756,-0.1793,-0.1836,-0.1874,-0.1913,-0.1931,-0.1963,-0.1964,-0.198,-0.198,-0.1965,-0.1955,-0.1972,-0.1917,-0.1915,-0.1798,-0.1782,-0.1965,-0.1901,-0.1901,-0.19,-0.19,0,-0.1559,-0.1591,-0.1636,-0.1704,-0.1722,-0.1759,-0.1825,-0.1863,-0.1914,-0.1943,-0.1973,-0.1987,-0.1999,-0.1997,-0.1975,-0.1989,-0.1962,-0.1944,-0.1942,-0.1804,-0.1781,-0.188,-0.1896,-0.1896,-0.1897,-0.1897,-0.1897,0,-0.1526,-0.1595,-0.1633,-0.1657,-0.1734,-0.1772,-0.1816,-0.1875,-0.1902,-0.1962,-0.1979,-0.2003,-0.2007,-0.1993,-0.1958,-0.1972,-0.1916,-0.193,-0.1784,-0.1774,-0.1895,-0.1893,-0.1904,-0.1905,-0.1905,-0.1905,-0.1905,0,-0.1504,-0.1542,-0.1629,-0.1652,-0.1691,-0.1769,-0.1816,-0.1857,-0.1921,-0.1933,-0.1993,-0.1981,-0.2007,-0.1978,-0.1954,-0.1844,-0.191,-0.1769,-0.1745,-0.1911,-0.1912,-0.1892,-0.1892,-0.1902,-0.1903,-0.1903,-0.1904,0,-0.1436,-0.1508,-0.1547,-0.1642,-0.1672,-0.1698,-0.1784,-0.1811,-0.1896,-0.1909,-0.1926,-0.1958,-0.1912,-0.191,-0.1869,-0.181,-0.1742,-0.1689,-0.1845,-0.1834,-0.1606,-0.1608,-0.1516,-0.151,-0.1506,-0.1502,-0.1499,0,-0.1389,-0.141,-0.15,-0.1522,-0.1564,-0.1627,-0.1658,-0.1765,-0.1787,-0.1864,-0.1846,-0.1843,-0.1842,-0.1669,-0.1694,-0.1621,-0.1607,-0.1567,-0.1602,-0.1577,-0.1564,-0.1574,-0.1582,-0.1492,-0.1491,-0.149,-0.1489,0,-0.1288,-0.1337,-0.137,-0.1403,-0.1449,-0.1477,-0.1542,-0.1547,-0.1661,-0.1756,-0.1706,-0.1672,-0.1608,-0.1561,-0.1508,-0.1466,-0.1595,-0.1522,-0.1531,-0.1564,-0.1548,-0.1542,-0.1555,-0.1474,-0.1476,-0.1477,-0.1478,0,-0.1205,-0.1192,-0.1249,-0.126,-0.1309,-0.1309,-0.1364,-0.1395,-0.1433,-0.1553,-0.152,-0.153,-0.1577,-0.1476,-0.143,-0.1373,-0.136,-0.133,-0.1349,-0.1366,-0.1346,-0.1307,-0.1119,0,0,0,0,0,-0.1116,-0.11,-0.1101,-0.1115,-0.1154,-0.118,-0.1273,-0.1345,-0.1466,-0.1387,-0.146,-0.1399,-0.1329,-0.1331,-0.1236,-0.1352,-0.136,-0.1238,-0.1337,-0.139,-0.1407,-0.1398,0,0,0,0,0,0,-0.1067,-0.1073,-0.1058,-0.0989,-0.097,-0.0998,-0.1051,-0.114,-0.1119,-0.1245,-0.1204,-0.1304,-0.1242,-0.1341,-0.1197,-0.12,-0.1233,-0.1262,-0.1258,-0.138,-0.1396,-0.141,-0.1406,0,0,0,0,0]},{"header":{"parameterUnit":"m.s-1","parameterCategory":2,"la1":30.2991,"la2":30.254,"lo1":-89.0895,"lo2":-89.0444,"dy":0.0017,"dx":0.0017,"nx":28,"ny":28,"refTime":"2025-03-19T21:00:00:Z","depth":"4","parameterNumber":3,"parameterNumberName":"V-component_of_CURRENTS"},"data":[0,0,0,0,0,0,0,0,0,0,0,0,0,0,0,0,0,0,0,0,0,0,0,0,0,0,0,0,0,0,0,0,0,0,0,0,0,0,0,0,0,0,0,0,0,0,0,0,0,0,0,0,0,0,0,0,0,0,-0.0209,-0.0209,0,-0.017,-0.0169,-0.0169,-0.0149,-0.0149,-0.0149,-0.0149,-0.0082,-0.008,-0.0078,0,0,0,0,0,0,0,0,0,0,0,0,0,-0.0229,-0.0228,-0.0209,-0.0209,-0.0208,-0.017,-0.0169,-0.0169,-0.0148,-0.0149,-0.0149,-0.0149,-0.0083,-0.008,-0.0078,0,0,0,0,0,0,0,0,0,0,0,0,0,-0.0207,-0.0228,-0.0209,-0.0194,-0.0193,-0.017,-0.0169,-0.0168,-0.0148,-0.0149,-0.0149,-0.0149,-0.0083,-0.0081,-0.0078,-0.0059,0,0,-0.007,-0.0068,0,0,0,0,0,0,0,0,-0.0208,-0.0206,-0.0197,-0.0195,-0.0193,-0.0165,-0.0152,-0.0131,-0.0148,-0.0164,-0.0149,-0.0149,-0.0108,-0.0103,-0.0095,-0.0056,-0.0053,-0.0069,-0.0068,-0.0067,-0.0066,0,0,0,0,0,0,0,-0.021,-0.0208,-0.0193,-0.0196,-0.0194,-0.0176,-0.0174,-0.0147,-0.0135,-0.0163,-0.0162,-0.0159,-0.0106,-0.0097,-0.0093,-0.0052,-0.0069,-0.0067,-0.0065,-0.0064,0.0003,0.0003,0,0,0,0,0,0,-0.0218,-0.0209,-0.0194,-0.0192,-0.0202,-0.0176,-0.0173,-0.0173,-0.0136,-0.0131,-0.0158,-0.0158,-0.0102,-0.0096,-0.009,-0.0071,-0.0067,-0.0064,-0.0062,0.0003,0.0003,0.0003,0,0,0,0,0,0,-0.0219,-0.0218,-0.0196,-0.02,-0.0196,-0.0176,-0.0176,-0.0172,-0.0167,-0.0133,-0.0127,-0.0158,-0.0102,-0.0094,-0.0071,-0.0069,-0.0063,-0.006,0.0003,0.0003,0.0003,-0.003,0,0,0,0,0,0,-0.022,-0.0218,-0.0223,-0.0201,-0.0196,-0.0188,-0.0176,-0.0172,-0.0165,-0.0164,-0.013,-0.0124,-0.0101,-0.0075,-0.0068,-0.0065,-0.0058,0.0002,0.0003,0.0003,-0.0029,-0.0031,-0.0033,0,0,0,0,0,-0.0221,-0.0227,-0.0224,-0.0222,-0.0203,-0.0188,-0.0184,-0.0169,-0.0165,-0.0164,-0.0141,-0.0125,-0.0069,-0.0073,-0.0065,-0.006,0.0002,0.0003,0.0003,-0.0028,-0.0031,-0.0033,0,0,0,0,0,0,-0.0236,-0.0224,-0.0221,-0.0223,-0.021,-0.0185,-0.0184,-0.0173,-0.0154,-0.0155,-0.0122,-0.0114,-0.0094,-0.0072,-0.0078,-0.004,-0.003,-0.0029,-0.0057,-0.0059,-0.0061,-0.007,-0.0056,0,0,0,0,0,-0.0243,-0.0247,-0.0229,-0.0232,-0.0227,-0.0207,-0.02,-0.019,-0.017,-0.0162,-0.0138,-0.0111,-0.0085,-0.0069,-0.0045,-0.0023,-0.0001,-0.0015,-0.0016,-0.0018,-0.002,0.0013,0.0014,0.0004,0.0004,0.0004,0,0,-0.025,-0.0245,-0.0246,-0.0236,-0.0225,-0.0219,-0.0203,-0.0196,-0.0189,-0.0157,-0.0142,-0.0118,-0.0081,-0.0059,-0.0047,-0.004,-0.0004,-0.0018,-0.0019,-0.0021,0.0014,0.0015,0.0016,0.0004,0.0004,0.0004,0,0,-0.0263,-0.0261,-0.0267,-0.0258,-0.0247,-0.0233,-0.0234,-0.0212,-0.0202,-0.0184,-0.0159,-0.0134,-0.0097,-0.0068,-0.0049,-0.0044,-0.0017,-0.0037,-0.0049,-0.0017,-0.0016,-0.0015,0.0011,0.0015,-0.0035,-0.0035,-0.0035,0,-0.0272,-0.0277,-0.0265,-0.0266,-0.0263,-0.0242,-0.0243,-0.0227,-0.02,-0.0191,-0.0185,-0.0129,-0.01,-0.0065,-0.0064,-0.0047,-0.0029,-0.0046,-0.002,-0.0018,-0.0016,0.001,0.0015,-0.0036,-0.0036,-0.0036,-0.0036,0,-0.0284,-0.0291,-0.0293,-0.0289,-0.0281,-0.0281,-0.0258,-0.025,-0.0237,-0.0217,-0.0189,-0.0149,-0.0117,-0.01,-0.008,-0.0051,-0.0042,-0.003,-0.0017,-0.0018,0.0011,0.0016,-0.0039,-0.0038,-0.0038,-0.0037,0,0,-0.0305,-0.0303,-0.0307,-0.0318,-0.0297,-0.0299,-0.0281,-0.0264,-0.0261,-0.0229,-0.0217,-0.0167,-0.0149,-0.0126,-0.0094,-0.0062,-0.0032,-0.0044,-0.0042,-0.0023,0.0034,0.0018,0.0022,-0.0017,-0.0016,-0.0016,0.0048,0,-0.0322,-0.0344,-0.0325,-0.0344,-0.0358,-0.0329,-0.0316,-0.0297,-0.0274,-0.0257,-0.021,-0.0188,-0.0157,-0.0145,-0.0107,-0.0053,-0.0019,-0.0051,0.0036,0.0039,0.002,0.0027,-0.0013,0.0052,0.0053,0.0054,0.0055,0,-0.0345,-0.0361,-0.0387,-0.0392,-0.0393,-0.0394,-0.0385,-0.0368,-0.0326,-0.0306,-0.0269,-0.0233,-0.0179,-0.0158,-0.0061,-0.0084,-0.003,0.0015,0.0019,0.0018,0.0032,0.0055,0.0065,0.0064,0.0063,0.0063,0.0062,0,-0.04,-0.0407,-0.0436,-0.0439,-0.0433,-0.0438,-0.0429,-0.0394,-0.0392,-0.0341,-0.0335,-0.026,-0.0232,-0.0152,-0.006,-0.006,0.0043,0.0057,0.0096,0.0096,0.0106,0.0104,0.0125,0.0125,0.0125,0.0125,0.0124,0,-0.044,-0.0469,-0.0473,-0.0498,-0.0538,-0.0499,-0.0526,-0.0498,-0.0461,-0.0466,-0.0374,-0.0356,-0.0231,-0.0158,-0.007,0.0025,0.0038,0.0094,0.0112,0.009,0.0086,0.011,0.0107,0.0127,0.0126,0.0126,0.0126,0,-0.051,-0.0506,-0.0554,-0.0563,-0.0575,-0.0608,-0.0615,-0.0621,-0.0566,-0.0567,-0.0554,-0.0435,-0.0328,-0.0202,-0.0064,0.0002,0.0102,0.0134,0.0096,0.0111,0.0137,0.0132,0.0184,0.0184,0.0184,0.0184,0.0184,0,-0.0553,-0.0582,-0.0629,-0.0663,-0.0677,-0.0716,-0.0738,-0.0698,-0.0699,-0.062,-0.0624,-0.0507,-0.0424,-0.0232,-0.0094,0.0079,0.0102,0.0154,0.0153,0.0131,0.0144,0.0139,0.0134,0.0184,0.0184,0.0184,0.0184,0,-0.0631,-0.0644,-0.0676,-0.0752,-0.0797,-0.0839,-0.0862,-0.0872,-0.0811,-0.0782,-0.0682,-0.0552,-0.0425,-0.025,-0.0111,0.0011,0.0121,0.0154,0.0155,0.0155,0.0132,0.0143,0.0138,0.0184,0.0184,0.0184,0.0184,0,-0.0684,-0.0724,-0.0758,-0.0818,-0.088,-0.0912,-0.0927,-0.0903,-0.089,-0.0793,-0.0772,-0.0592,-0.0492,-0.0286,-0.0164,-0.0039,-0.0006,0.0031,0.0039,0.0041,-0.0017,-0.0068,-0.0064,0,0,0,0,0,-0.0729,-0.0755,-0.0815,-0.0866,-0.0922,-0.0952,-0.0975,-0.0966,-0.0935,-0.0881,-0.0817,-0.0692,-0.0463,-0.0349,-0.0229,-0.017,0.0009,-0.0026,0.0053,0.0183,0.0183,0.0137,0,0,0,0,0,0,-0.075,-0.0803,-0.0816,-0.0878,-0.092,-0.0973,-0.0987,-0.0965,-0.0922,-0.0873,-0.0751,-0.068,-0.0459,-0.0541,-0.0233,-0.0192,-0.0128,0.0082,0.0085,0.0183,0.0183,0.0183,0.0136,0,0,0,0,0]}]]